[[{"header":{"parameterUnit":"m.s-1","parameterCategory":1,"la1":30.2991,"la2":30.254,"lo1":-89.0895,"lo2":-89.0444,"dy":0.0017,"dx":0.0017,"nx":28,"ny":28,"refTime":"2024-06-18T21:00:00:Z","depth":0,"parameterNumber":2,"parameterNumberName":"U-component_of_WINDS"},"data":[0,0,0,0,0,0,0,0,0,0,0,0,0,0,0,0,0,0,0,0,0,0,0,0,0,0,0,0,0,0,0,0,0,0,0,0,0,0,0,0,0,0,0,0,0,0,0,0,0,0,0,0,0,0,0,0,0,0,-10.4424,-10.4425,0,-10.4519,-10.452,-10.4522,-10.4368,-10.4363,-10.4358,-10.4353,-10.4446,-10.4453,-10.446,0,0,0,0,0,0,0,0,0,0,0,0,0,-10.4106,-10.4113,-10.4424,-10.4425,-10.4426,-10.4519,-10.4521,-10.4522,-10.4369,-10.4363,-10.4357,-10.4351,-10.4444,-10.4452,-10.4461,0,0,0,0,0,0,0,0,0,0,0,0,0,-10.4227,-10.4115,-10.4424,-10.4362,-10.4357,-10.4519,-10.4521,-10.4522,-10.4371,-10.4363,-10.4355,-10.4348,-10.4441,-10.4451,-10.4462,-10.4688,0,0,-10.4496,-10.4501,0,0,0,0,0,0,0,0,-10.422,-10.4239,-10.4369,-10.4366,-10.4361,-10.4424,-10.4442,-10.4578,-10.4373,-10.4365,-10.4353,-10.4344,-10.4445,-10.4455,-10.449,-10.4692,-10.4696,-10.4497,-10.4504,-10.4508,-10.4512,0,0,0,0,0,0,0,-10.4212,-10.4234,-10.4461,-10.4372,-10.4367,-10.4328,-10.4336,-10.4467,-10.4448,-10.4365,-10.4355,-10.4368,-10.4441,-10.448,-10.4491,-10.4698,-10.4497,-10.4507,-10.4513,-10.4518,-10.509,-10.5098,0,0,0,0,0,0,-10.4212,-10.4228,-10.4458,-10.4464,-10.427,-10.434,-10.4349,-10.4412,-10.4446,-10.4444,-10.4375,-10.4361,-10.4465,-10.4478,-10.4494,-10.4759,-10.4508,-10.4519,-10.4525,-10.5081,-10.5092,-10.5101,0,0,0,0,0,0,-10.4206,-10.4234,-10.4454,-10.4343,-10.4368,-10.4354,-10.4425,-10.4418,-10.4456,-10.4453,-10.4448,-10.4418,-10.4459,-10.4478,-10.4641,-10.476,-10.4524,-10.4534,-10.5071,-10.5084,-10.5096,-10.5292,0,0,0,0,0,0,-10.4197,-10.4233,-10.4319,-10.4346,-10.4375,-10.4602,-10.4432,-10.4425,-10.4476,-10.4459,-10.4493,-10.4491,-10.4454,-10.4625,-10.4652,-10.4771,-10.4542,-10.506,-10.5077,-10.5092,-10.5274,-10.531,-10.534,0,0,0,0,0,-10.4186,-10.4369,-10.4324,-10.4353,-10.4483,-10.4609,-10.4625,-10.4581,-10.4487,-10.4572,-10.4571,-10.449,-10.4744,-10.4643,-10.4672,-10.4796,-10.5052,-10.5072,-10.5091,-10.526,-10.5303,-10.5339,0,0,0,0,0,0,-10.4353,-10.4371,-10.4321,-10.4519,-10.4564,-10.4583,-10.4689,-10.4628,-10.4699,-10.4679,-10.462,-10.4629,-10.4804,-10.4817,-10.4705,-10.5016,-10.4882,-10.4908,-10.5001,-10.5041,-10.5074,-10.5065,-10.4552,0,0,0,0,0,-10.4414,-10.4516,-10.4526,-10.4699,-10.4724,-10.4704,-10.4757,-10.472,-10.4763,-10.4781,-10.4791,-10.4835,-10.4924,-10.4984,-10.5066,-10.5277,-10.5281,-10.5377,-10.541,-10.5436,-10.5458,-10.5569,-10.5611,-10.5164,-10.5164,-10.5164,0,0,-10.4537,-10.456,-10.4628,-10.4733,-10.4763,-10.4869,-10.472,-10.4839,-10.4916,-10.4798,-10.4952,-10.4962,-10.5007,-10.5195,-10.5278,-10.5211,-10.5583,-10.5461,-10.5482,-10.5489,-10.5593,-10.5636,-10.5673,-10.5177,-10.5175,-10.5173,0,0,-10.4817,-10.4846,-10.4993,-10.5028,-10.5076,-10.5062,-10.5098,-10.5128,-10.513,-10.5285,-10.5198,-10.529,-10.5446,-10.5481,-10.552,-10.5818,-10.5745,-10.5847,-10.6015,-10.6124,-10.6159,-10.619,-10.6294,-10.6332,-10.5869,-10.587,-10.587,0,-10.4964,-10.5122,-10.5076,-10.5201,-10.5249,-10.5151,-10.5298,-10.5333,-10.5406,-10.5441,-10.5366,-10.556,-10.5584,-10.5778,-10.5851,-10.5887,-10.5924,-10.584,-10.6159,-10.6189,-10.6217,-10.6315,-10.6355,-10.5881,-10.588,-10.5879,-10.5878,0,-10.5299,-10.5411,-10.5523,-10.5598,-10.566,-10.5796,-10.5769,-10.5837,-10.5796,-10.5789,-10.5948,-10.5974,-10.6059,-10.6104,-10.6064,-10.6293,-10.625,-10.6168,-10.6031,-10.6272,-10.6363,-10.6401,-10.5898,-10.5894,-10.589,-10.5888,0,0,-10.5681,-10.5733,-10.5774,-10.5807,-10.5856,-10.594,-10.6072,-10.6158,-10.6216,-10.6271,-10.6378,-10.6515,-10.644,-10.6484,-10.6448,-10.6545,-10.6777,-10.6451,-10.6451,-10.6508,-10.7029,-10.7087,-10.7131,-10.6731,-10.6738,-10.6744,-10.7024,0,-10.5958,-10.6186,-10.615,-10.637,-10.6471,-10.6381,-10.6495,-10.6537,-10.6536,-10.6621,-10.6619,-10.6716,-10.6611,-10.6637,-10.6729,-10.6729,-10.688,-10.6709,-10.6828,-10.6832,-10.6815,-10.7179,-10.7241,-10.7504,-10.7059,-10.7065,-10.707,0,-10.6309,-10.6379,-10.661,-10.6644,-10.6685,-10.6789,-10.6865,-10.6948,-10.6994,-10.6986,-10.7038,-10.6985,-10.7115,-10.6981,-10.7159,-10.7044,-10.7091,-10.7099,-10.7108,-10.7113,-10.6962,-10.7191,-10.7586,-10.7625,-10.7126,-10.7121,-10.7117,0,-10.6561,-10.6714,-10.6871,-10.6903,-10.6947,-10.7022,-10.7043,-10.7082,-10.7136,-10.7203,-10.7238,-10.7319,-10.7363,-10.7426,-10.7396,-10.7302,-10.758,-10.7443,-10.7574,-10.7575,-10.7633,-10.7629,-10.8037,-10.7671,-10.767,-10.7669,-10.7669,0,-10.6871,-10.7015,-10.6985,-10.7081,-10.724,-10.7198,-10.7356,-10.7367,-10.7403,-10.7498,-10.7427,-10.7518,-10.7475,-10.7564,-10.7541,-10.7691,-10.7712,-10.7708,-10.7699,-10.7712,-10.7712,-10.7739,-10.7718,-10.768,-10.7678,-10.7676,-10.7674,0,-10.7176,-10.7163,-10.7328,-10.7358,-10.7369,-10.7485,-10.7509,-10.7599,-10.7595,-10.7717,-10.7743,-10.7735,-10.7836,-10.7814,-10.7924,-10.7909,-10.8096,-10.8067,-10.8081,-10.8072,-10.8204,-10.8191,-10.8641,-10.8696,-10.8298,-10.8302,-10.8305,0,-10.7373,-10.7482,-10.7525,-10.7585,-10.7613,-10.7711,-10.7767,-10.7731,-10.7792,-10.7854,-10.7936,-10.8031,-10.8104,-10.827,-10.8272,-10.8356,-10.8326,-10.8478,-10.8337,-10.8347,-10.8324,-10.8317,-10.8326,-10.8504,-10.8509,-10.8513,-10.8516,0,-10.7722,-10.7711,-10.7795,-10.7878,-10.7947,-10.8011,-10.8067,-10.812,-10.8089,-10.8161,-10.8264,-10.8321,-10.8435,-10.8529,-10.8608,-10.8628,-10.8567,-10.8561,-10.8595,-10.8607,-10.8609,-10.8607,-10.8153,-10.8549,-10.8546,-10.8543,-10.8542,-10.854,-10.7976,-10.8069,-10.8114,-10.821,-10.825,-10.8305,-10.8391,-10.8398,-10.8484,-10.8574,-10.8549,-10.8666,-10.871,-10.8809,-10.884,-10.893,-10.8872,-10.8923,-10.8935,-10.8947,-10.8962,-10.8599,-10.8944,-10.8943,-10.8943,-10.8942,-10.8941,0,-10.8318,-10.8344,-10.8434,-10.8516,-10.8592,-10.8532,-10.8591,-10.8658,-10.8763,-10.8811,-10.8885,-10.9004,-10.9096,-10.9108,-10.9195,-10.9265,-10.9239,-10.9289,-10.9281,-10.9286,-10.9009,-10.897,-10.9308,-10.9308,-10.9308,-10.9308,-10.9308,-10.9308,-10.8505,-10.8658,-10.8653,-10.8825,-10.8849,-10.8965,-10.9004,-10.9054,-10.9091,-10.9228,-10.9305,-10.9313,-10.9347,-10.9436,-10.9517,-10.9518,-10.9552,-10.9612,-10.9602,-10.9343,-10.9306,-10.9271,-10.9233,-10.9621,-10.9621,-10.9871,-10.9873,-10.9875]},{"header":{"parameterUnit":"m.s-1","parameterCategory":1,"la1":30.2991,"la2":30.254,"lo1":-89.0895,"lo2":-89.0444,"dy":0.0017,"dx":0.0017,"nx":28,"ny":28,"refTime":"2024-06-18T21:00:00:Z","depth":0,"parameterNumber":3,"parameterNumberName":"V-component_of_WINDS"},"data":[0,0,0,0,0,0,0,0,0,0,0,0,0,0,0,0,0,0,0,0,0,0,0,0,0,0,0,0,0,0,0,0,0,0,0,0,0,0,0,0,0,0,0,0,0,0,0,0,0,0,0,0,0,0,0,0,0,0,1.6838,1.6839,0,1.6869,1.6869,1.687,1.6903,1.6903,1.6904,1.6904,1.6931,1.6931,1.6932,0,0,0,0,0,0,0,0,0,0,0,0,0,1.6805,1.6806,1.6838,1.6839,1.6839,1.6869,1.6869,1.687,1.6903,1.6903,1.6904,1.6904,1.6931,1.6931,1.6932,0,0,0,0,0,0,0,0,0,0,0,0,0,1.6826,1.6806,1.6838,1.6859,1.6861,1.6869,1.6869,1.687,1.6902,1.6903,1.6904,1.6905,1.6931,1.6931,1.6932,1.692,0,0,1.6933,1.6933,0,0,0,0,0,0,0,0,1.6825,1.6827,1.6856,1.6858,1.686,1.6883,1.6868,1.6887,1.6902,1.6887,1.6904,1.6905,1.6914,1.6916,1.692,1.6921,1.6922,1.6933,1.6933,1.6934,1.6934,0,0,0,0,0,0,0,1.6823,1.6826,1.685,1.6856,1.6859,1.6866,1.687,1.6872,1.6896,1.6888,1.6891,1.6894,1.6916,1.692,1.6921,1.6923,1.6933,1.6933,1.6934,1.6934,1.6917,1.6917,0,0,0,0,0,0,1.6819,1.6825,1.6849,1.6851,1.6844,1.6866,1.687,1.6875,1.6896,1.69,1.6893,1.6895,1.6919,1.6921,1.6922,1.691,1.6934,1.6934,1.6934,1.6918,1.6917,1.6916,0,0,0,0,0,0,1.6818,1.6821,1.6848,1.6839,1.6843,1.6866,1.6871,1.6875,1.6879,1.69,1.6904,1.6893,1.6919,1.6922,1.6921,1.6912,1.6934,1.6935,1.6919,1.6918,1.6917,1.6886,0,0,0,0,0,0,1.6817,1.6821,1.6817,1.6838,1.6843,1.6847,1.687,1.6875,1.688,1.6883,1.6901,1.6905,1.692,1.692,1.6921,1.6913,1.6935,1.692,1.6918,1.6917,1.6888,1.6884,1.6881,0,0,0,0,0,1.6816,1.6806,1.6816,1.6819,1.6839,1.6846,1.6849,1.6868,1.6879,1.6875,1.6889,1.6904,1.6913,1.692,1.6921,1.6913,1.692,1.6919,1.6917,1.689,1.6885,1.6881,0,0,0,0,0,0,1.678,1.6809,1.6821,1.6817,1.683,1.6852,1.6847,1.6862,1.687,1.6872,1.6895,1.6898,1.6895,1.6904,1.6911,1.6903,1.6919,1.6917,1.6897,1.6893,1.689,1.6887,1.6935,0,0,0,0,0,1.6772,1.6777,1.6801,1.6796,1.6802,1.6824,1.6827,1.6842,1.6854,1.6859,1.6873,1.6883,1.6889,1.6892,1.6898,1.689,1.6895,1.6885,1.6882,1.6879,1.6877,1.6874,1.687,1.6911,1.6911,1.6911,0,0,1.6755,1.6771,1.6772,1.6789,1.68,1.6804,1.6827,1.683,1.6833,1.6859,1.686,1.687,1.6884,1.688,1.6879,1.6887,1.6867,1.6877,1.6874,1.6874,1.6872,1.6868,1.6865,1.691,1.691,1.6911,0,0,1.6725,1.6738,1.6736,1.6747,1.6764,1.678,1.6779,1.68,1.6809,1.681,1.683,1.6834,1.6842,1.6852,1.6857,1.6834,1.6848,1.6836,1.6816,1.6814,1.681,1.6808,1.6799,1.6796,1.6834,1.6834,1.6834,0,1.6701,1.6709,1.6732,1.6734,1.6741,1.6768,1.6765,1.6774,1.6792,1.6796,1.6805,1.6818,1.6829,1.6828,1.6823,1.6827,1.6826,1.6833,1.6809,1.6807,1.6805,1.6797,1.6794,1.6832,1.6833,1.6833,1.6833,0,1.6678,1.6683,1.6679,1.6698,1.6705,1.6704,1.6727,1.6731,1.6745,1.6759,1.6761,1.6775,1.6785,1.6786,1.6799,1.6788,1.6793,1.6805,1.6821,1.6799,1.6792,1.6789,1.683,1.6831,1.6831,1.6831,0,0,1.6624,1.6659,1.6657,1.6666,1.6688,1.6692,1.6693,1.6705,1.6708,1.672,1.6721,1.6729,1.6742,1.6749,1.6763,1.6761,1.6742,1.6774,1.6775,1.6767,1.6731,1.672,1.6717,1.6752,1.6752,1.6752,1.673,0,1.6599,1.6604,1.6626,1.6624,1.6629,1.6656,1.6657,1.667,1.6684,1.669,1.6705,1.671,1.6727,1.6731,1.673,1.6745,1.6735,1.6747,1.6753,1.6753,1.6748,1.6713,1.6702,1.668,1.6727,1.6727,1.6726,0,1.6568,1.6581,1.658,1.6604,1.6607,1.6608,1.6621,1.6627,1.6643,1.6653,1.6662,1.6679,1.6681,1.6697,1.6701,1.6708,1.6712,1.672,1.672,1.672,1.6737,1.6712,1.6674,1.667,1.6722,1.6723,1.6723,0,1.6529,1.6546,1.6548,1.6555,1.6583,1.6583,1.6594,1.6612,1.6618,1.6629,1.6634,1.6644,1.665,1.6658,1.6678,1.6687,1.6679,1.6696,1.6686,1.6686,1.6682,1.6682,1.6643,1.6686,1.6686,1.6686,1.6686,0,1.6497,1.6496,1.6531,1.6532,1.6531,1.6557,1.6555,1.6569,1.6584,1.6588,1.6612,1.6614,1.6641,1.6646,1.6662,1.6662,1.6665,1.6672,1.6676,1.667,1.6669,1.6672,1.6673,1.6685,1.6686,1.6686,1.6686,0,1.6452,1.6476,1.648,1.6508,1.6515,1.6513,1.6536,1.6537,1.6554,1.6558,1.6561,1.6586,1.6594,1.6615,1.6628,1.6638,1.6634,1.6642,1.6629,1.6632,1.6621,1.6621,1.6582,1.6578,1.6624,1.6623,1.6623,0,1.643,1.643,1.6458,1.6464,1.6475,1.6482,1.649,1.6516,1.6522,1.6542,1.6541,1.6552,1.6561,1.6573,1.6591,1.6602,1.6609,1.6595,1.6611,1.6605,1.6609,1.6608,1.6608,1.6591,1.659,1.659,1.659,0,1.6388,1.64,1.6411,1.6426,1.6435,1.6447,1.6461,1.6463,1.6492,1.6498,1.6508,1.6516,1.6531,1.6541,1.6555,1.6565,1.6582,1.6585,1.6583,1.6576,1.6568,1.6572,1.6619,1.6585,1.6586,1.6586,1.6586,1.6586,1.6353,1.6355,1.6376,1.6387,1.6401,1.6414,1.6417,1.6435,1.6445,1.646,1.6475,1.6483,1.65,1.6521,1.6531,1.6537,1.6545,1.6543,1.6542,1.6541,1.6538,1.6569,1.6539,1.654,1.654,1.654,1.654,0,1.6312,1.6328,1.6338,1.6358,1.6367,1.6385,1.6401,1.6407,1.6415,1.643,1.6441,1.6452,1.6463,1.6483,1.6495,1.6496,1.6504,1.6498,1.6498,1.65,1.6529,1.653,1.6492,1.6492,1.6492,1.6492,1.6492,1.6492,1.6292,1.6296,1.6311,1.6322,1.6338,1.6348,1.6356,1.6368,1.638,1.6393,1.6403,1.6417,1.6434,1.6448,1.6459,1.6464,1.6467,1.6459,1.6467,1.6493,1.6498,1.6502,1.6503,1.6459,1.6459,1.6437,1.6437,1.6436]}]]